sat.trackr.live / text

‹ back to catalog

STARLINK-35465

NORAD 65871 · 2025-223T

PAYLOAD ACTIVE UNKNOWN

§ Identity

Operator
Country
US
Launch date
2025-10-03
Launch site
AFWTR
Launch vehicle
Mass (kg)
RCS (m²)

Purposes: comms

External: N2YO · Heavens-Above · Gunter

§ Orbital elements

Epoch: 2026-09-20T22:18:08.325792Z

Period
93.85 min
Inclination
53.1589°
Eccentricity
0.0000775
Mean motion
15.34418299 rev/d
Perigee alt
462.1 km
Apogee alt
463.2 km
Semi-major
6,840.8 km
B*
1.2358e-3
RAAN
105.4688°
Arg perigee
131.8297°
Mean anomaly
228.2772°
Rev number
5,412

§ Raw data

STARLINK-354651 65871U 25223T   26263.92926303  .00041633  00000+0  12358-2 0  99912 65871  53.1589 105.4688 0000775 131.8297 228.2772 15.34418299 54120

JSON: /api/v1/satellites/65871 · /tle

For live sub-satellite position, see the globe view (requires WebGL).

§ Visibility from observer

Set your observer location to see the next 7 days of passes ≥ 10°. The values pass through the URL so the page stays shareable.

No JS? Fill the form by hand. The geolocation button needs JavaScript.